DW9004 Weather Reports


Display with metric or nautical units.
time (UTC)temp
F
wind
direction
speed
MPH
gust
MPH
rain 1hr
in
rain 24hr
in
rain mn
in
humidity
%
barometer
mb
20260505153051 67 122 5.0 11.0 0.00 0.00 0.00 51 1006.7
20260505151549 66 104 7.0 11.0 0.00 0.00 0.00 53 1006.6
20260505124512 58 15 1.0 7.0 0.00 0.00 0.00 65 1004.8
20260505123022 56 140 2.0 7.0 0.00 0.00 0.00 69 1004.7
20260505121506 56 141 0.0 0.0 0.00 0.00 0.00 68 1004.6
20260505120005 57 121 0.0 0.0 0.00 0.00 0.00 65 1004.5
20260505114601 58 106 0.0 0.0 0.00 0.00 0.00 65 1004.3
20260505113056 59 106 0.0 0.0 0.00 0.00 0.00 63 1004.2
20260505111552 60 352 0.0 0.0 0.00 0.00 0.00 62 1004.0
20260505101549 61 352 0.0 0.0 0.00 0.00 0.00 59 1003.1
20260505100052 61 2 0.0 0.0 0.00 0.00 0.00 60 1002.9
20260505094530 62 26 0.0 0.0 0.00 0.00 0.00 56 1002.9
20260505093029 63 27 0.0 0.0 0.00 0.00 0.00 54 1002.9
20260505091521 63 27 0.0 2.0 0.00 0.00 0.00 57 1002.6
20260505090020 63 27 0.0 2.0 0.00 0.00 0.00 58 1002.4
20260505084520 63 126 0.0 1.0 0.00 0.00 0.00 57 1002.3
20260505083006 63 26 0.0 1.0 0.00 0.00 0.00 58 1002.3
20260505081505 63 90 0.0 1.0 0.00 0.00 0.00 57 1002.3
20260505080004 63 33 0.0 0.0 0.00 0.00 0.00 56 1002.4
20260505074600 64 33 0.0 0.0 0.00 0.00 0.00 55 1002.5
20260505071556 67 22 0.0 1.0 0.00 0.00 0.00 50 1001.8
20260505070058 67 243 0.0 0.0 0.00 0.00 0.00 48 1001.6
20260505064551 68 243 0.0 0.0 0.00 0.00 0.00 46 1001.7
20260505063046 68 190 0.0 1.0 0.00 0.00 0.00 46 1001.5
20260505061540 67 208 0.0 0.0 0.00 0.00 0.00 46 1001.3
20260505060035 66 210 0.0 0.0 0.00 0.00 0.00 48 1001.3
20260505054543 66 85 0.0 3.0 0.00 0.00 0.00 48 1001.3
20260505053039 66 17 0.0 0.0 0.00 0.00 0.00 46 1001.2
20260505051539 66 17 0.0 0.0 0.00 0.00 0.00 46 1001.1
20260505041509 68 308 0.0 0.0 0.00 0.00 0.00 45 1000.7
20260505040051 69 308 0.0 0.0 0.00 0.00 0.00 44 1000.7
20260505034550 70 308 0.0 0.0 0.00 0.00 0.00 43 1000.5
20260505033045 71 308 0.0 0.0 0.00 0.00 0.00 44 1000.4
20260505031548 72 308 0.0 0.0 0.00 0.00 0.00 46 1000.3
20260505030037 75 308 0.0 1.0 0.00 0.00 0.00 44 1000.1
20260505024533 78 117 0.0 0.0 0.00 0.00 0.00 32 999.9
20260505023028 80 117 0.0 0.0 0.00 0.00 0.00 28 999.9
20260505021529 81 117 0.0 1.0 0.00 0.00 0.00 28 1000.0
20260505020011 83 94 0.0 2.0 0.00 0.00 0.00 26 1000.0
20260505014509 83 128 0.0 5.0 0.00 0.00 0.00 26 1000.0
20260505013005 84 114 3.0 5.0 0.00 0.00 0.00 25 1000.1
20260505011503 85 85 4.0 7.0 0.00 0.00 0.00 23 1000.3
20260505010117 86 119 2.0 5.0 0.00 0.00 0.00 23 1000.4
20260505004558 87 107 2.0 4.0 0.00 0.00 0.00 22 1000.4
20260505003059 87 88 2.0 7.0 0.00 0.00 0.00 22 1000.5
20260505001557 87 102 3.0 9.0 0.00 0.00 0.00 22 1000.5
20260505000054 88 12 2.0 7.0 0.00 0.00 0.00 21 1000.5
20260504234543 89 301 1.0 4.0 0.00 0.00 0.00 20 1000.4
20260504233041 88 343 0.0 11.0 0.00 0.00 0.00 21 1000.6
20260504231545 88 45 0.0 4.0 0.00 0.00 0.00 21 1000.7
20260504230044 87 9 3.0 13.0 0.00 0.00 0.00 19 1000.7
20260504224534 91 319 1.0 5.0 0.00 0.00 0.00 19 1000.9
20260504223032 90 5 3.0 5.0 0.00 0.00 0.00 19 1001.2
20260504221542 88 81 0.0 7.0 0.00 0.00 0.00 20 1001.4
20260504220028 87 303 0.0 9.0 0.00 0.00 0.00 22 1001.5
20260504214514 90 327 4.0 8.0 0.00 0.00 0.00 21 1001.7
20260504213010 90 327 0.0 2.0 0.00 0.00 0.00 22 1002.0
20260504211508 88 10 1.0 9.0 0.00 0.00 0.00 20 1002.1
20260504210007 87 20 0.0 8.0 0.00 0.00 0.00 23 1002.3
20260504204505 87 332 1.0 11.0 0.00 0.00 0.00 22 1002.5
20260504203002 87 129 2.0 8.0 0.00 0.00 0.00 22 1002.7
20260504201504 88 105 2.0 8.0 0.00 0.00 0.00 21 1003.0
20260504200002 87 232 3.0 6.0 0.00 0.00 0.00 22 1003.2
20260504194555 86 257 0.0 7.0 0.00 0.00 0.00 23 1003.3
20260504193049 85 110 0.0 9.0 0.00 0.00 0.00 23 1003.5
20260504191547 85 50 2.0 6.0 0.00 0.00 0.00 26 1003.5
20260504190047 84 108 5.0 10.0 0.00 0.00 0.00 25 1003.6
20260504184546 86 102 1.0 5.0 0.00 0.00 0.00 23 1003.7
20260504183046 84 146 2.0 8.0 0.00 0.00 0.00 27 1003.8
20260504181548 84 149 2.0 6.0 0.00 0.00 0.00 28 1003.9
20260504174529 82 213 0.0 5.0 0.00 0.00 0.00 31 1004.0
20260504173022 80 277 0.0 3.0 0.00 0.00 0.00 33 1004.0
20260504171510 79 210 0.0 7.0 0.00 0.00 0.00 34 1004.2